Time,TemperatureF,DewpointF,PressureIn,WindDirection,WindDirectionDegrees,WindSpeedMPH,WindSpeedGustMPH,Humidity,HourlyPrecipIn,Conditions,Clouds,dailyrainin,SolarRadiationWatts/m^2,SoftwareType,DateUTC
2013-01-28 00:21:00,72.0,65.0,30.27,SW,226,9.0,16.0,80,0.00,,,0.00,0.000000,,2013-01-28 10:21:00,
2013-01-28 00:31:00,72.0,65.0,30.27,SW,226,9.0,16.0,80,0.00,,,0.00,0.000000,,2013-01-28 10:31:00,
2013-01-28 00:41:00,72.0,65.0,30.27,SW,226,9.0,16.0,80,0.00,,,0.00,0.000000,,2013-01-28 10:41:00,
2013-01-28 00:51:00,72.0,65.0,30.27,SW,226,9.0,16.0,80,0.00,,,0.00,0.000000,,2013-01-28 10:51:00,
2013-01-28 01:11:00,71.0,64.0,30.26,SSW,212,7.0,16.0,78,0.00,,,0.00,0.000000,,2013-01-28 11:11:00,
2013-01-28 01:22:00,71.0,64.0,30.26,SSW,212,7.0,16.0,78,0.00,,,0.00,0.000000,,2013-01-28 11:22:00,
2013-01-28 01:32:00,71.0,64.0,30.26,SSW,212,7.0,16.0,78,0.00,,,0.00,0.000000,,2013-01-28 11:32:00,
2013-01-28 01:42:00,71.0,64.0,30.26,SSW,212,7.0,16.0,78,0.00,,,0.00,0.000000,,2013-01-28 11:42:00,
2013-01-28 01:52:00,71.0,64.0,30.26,SSW,212,7.0,16.0,78,0.00,,,0.00,0.000000,,2013-01-28 11:52:00,
2013-01-28 02:11:00,71.0,62.0,30.24,SSW,193,8.0,18.0,73,0.00,,,0.00,0.000000,,2013-01-28 12:11:00,
2013-01-28 02:23:00,71.0,62.0,30.24,SSW,193,8.0,18.0,73,0.00,,,0.00,0.000000,,2013-01-28 12:23:00,
2013-01-28 02:32:00,71.0,62.0,30.24,SSW,193,8.0,18.0,73,0.00,,,0.00,0.000000,,2013-01-28 12:32:00,
2013-01-28 02:42:00,71.0,62.0,30.24,SSW,193,8.0,18.0,73,0.00,,,0.00,0.000000,,2013-01-28 12:42:00,
2013-01-28 02:52:00,71.0,62.0,30.24,SSW,193,8.0,18.0,73,0.00,,,0.00,0.000000,,2013-01-28 12:52:00,
2013-01-28 03:22:00,71.0,62.0,30.24,SSW,201,7.0,17.0,74,0.00,,,0.00,0.000000,,2013-01-28 13:22:00,
2013-01-28 03:33:00,71.0,62.0,30.24,SSW,201,7.0,17.0,74,0.00,,,0.00,0.000000,,2013-01-28 13:33:00,
2013-01-28 03:42:00,71.0,62.0,30.24,SSW,201,7.0,17.0,74,0.00,,,0.00,0.000000,,2013-01-28 13:42:00,
2013-01-28 03:52:00,71.0,62.0,30.24,SSW,201,7.0,17.0,74,0.00,,,0.00,0.000000,,2013-01-28 13:52:00,
2013-01-28 04:12:00,71.0,62.0,30.22,SSE,167,8.0,15.0,74,0.00,,,0.00,0.000000,,2013-01-28 14:12:00,
2013-01-28 04:22:00,71.0,62.0,30.22,SSE,167,8.0,15.0,74,0.00,,,0.00,0.000000,,2013-01-28 14:22:00,
2013-01-28 04:32:00,71.0,62.0,30.22,SSE,167,8.0,15.0,74,0.00,,,0.00,0.000000,,2013-01-28 14:32:00,
2013-01-28 04:42:00,71.0,62.0,30.22,SSE,167,8.0,15.0,74,0.00,,,0.00,0.000000,,2013-01-28 14:42:00,
2013-01-28 04:52:00,71.0,62.0,30.22,SSE,167,8.0,15.0,74,0.00,,,0.00,0.000000,,2013-01-28 14:52:00,
2013-01-28 05:23:00,71.0,62.0,30.22,South,179,9.0,17.0,73,0.00,,,0.00,0.000000,,2013-01-28 15:23:00,
2013-01-28 05:33:00,71.0,62.0,30.22,South,179,9.0,17.0,73,0.00,,,0.00,0.000000,,2013-01-28 15:33:00,
2013-01-28 05:42:00,71.0,62.0,30.22,South,179,9.0,17.0,73,0.00,,,0.00,0.000000,,2013-01-28 15:42:00,
2013-01-28 05:52:00,71.0,62.0,30.22,South,179,9.0,17.0,73,0.00,,,0.00,0.000000,,2013-01-28 15:52:00,
2013-01-28 06:22:00,70.0,64.0,30.23,East,89,5.0,18.0,82,0.00,,,0.00,0.000000,,2013-01-28 16:22:00,
2013-01-28 06:32:00,70.0,64.0,30.23,East,89,5.0,18.0,82,0.00,,,0.00,0.000000,,2013-01-28 16:32:00,
2013-01-28 06:42:00,70.0,64.0,30.23,East,89,5.0,18.0,82,0.00,,,0.00,0.000000,,2013-01-28 16:42:00,
2013-01-28 06:52:00,70.0,64.0,30.23,East,89,5.0,18.0,82,0.00,,,0.00,0.000000,,2013-01-28 16:52:00,
2013-01-28 07:12:00,70.0,67.0,30.25,NE,51,8.0,12.0,90,0.00,,,0.00,0.000000,,2013-01-28 17:12:00,
2013-01-28 07:22:00,70.0,67.0,30.25,NE,51,8.0,12.0,90,0.00,,,0.00,0.000000,,2013-01-28 17:22:00,
2013-01-28 07:32:00,70.0,67.0,30.25,NE,51,8.0,12.0,90,0.00,,,0.00,0.000000,,2013-01-28 17:32:00,
2013-01-28 07:41:00,70.0,67.0,30.25,NE,51,8.0,12.0,90,0.00,,,0.00,0.000000,,2013-01-28 17:41:00,
2013-01-28 07:52:00,70.0,67.0,30.25,NE,51,8.0,12.0,90,0.00,,,0.00,0.000000,,2013-01-28 17:52:00,
2013-01-28 08:23:00,68.0,66.0,30.27,NE,37,7.0,12.0,94,0.00,,,0.00,0.000000,,2013-01-28 18:23:00,
2013-01-28 08:33:00,68.0,66.0,30.27,NE,37,7.0,12.0,94,0.00,,,0.00,0.000000,,2013-01-28 18:33:00,
2013-01-28 08:42:00,68.0,66.0,30.27,NE,37,7.0,12.0,94,0.00,,,0.00,0.000000,,2013-01-28 18:42:00,
2013-01-28 08:52:00,68.0,66.0,30.27,NE,37,7.0,12.0,94,0.00,,,0.00,0.000000,,2013-01-28 18:52:00,
2013-01-28 09:22:00,69.0,67.0,30.28,NE,44,9.0,13.0,93,0.00,,,0.00,11.000000,,2013-01-28 19:22:00,
2013-01-28 09:32:00,69.0,67.0,30.28,NE,44,9.0,13.0,93,0.00,,,0.00,11.000000,,2013-01-28 19:32:00,
2013-01-28 09:42:00,69.0,67.0,30.28,NE,44,9.0,13.0,93,0.00,,,0.00,11.000000,,2013-01-28 19:42:00,
2013-01-28 09:52:00,69.0,67.0,30.28,NE,44,9.0,13.0,93,0.00,,,0.00,11.000000,,2013-01-28 19:52:00,
2013-01-28 10:22:00,69.0,67.0,30.29,NE,36,7.0,14.0,92,0.00,,,0.00,107.000000,,2013-01-28 20:22:00,
2013-01-28 10:33:00,69.0,67.0,30.29,NE,36,7.0,14.0,92,0.00,,,0.00,107.000000,,2013-01-28 20:33:00,
2013-01-28 10:42:00,69.0,67.0,30.29,NE,36,7.0,14.0,92,0.00,,,0.00,107.000000,,2013-01-28 20:42:00,
2013-01-28 10:52:00,69.0,67.0,30.29,NE,36,7.0,14.0,92,0.00,,,0.00,107.000000,,2013-01-28 20:52:00,
2013-01-28 11:22:00,70.0,66.0,30.29,NE,41,9.0,14.0,87,0.00,,,0.00,171.000000,,2013-01-28 21:22:00,
2013-01-28 11:33:00,70.0,66.0,30.29,NE,41,9.0,14.0,87,0.00,,,0.00,171.000000,,2013-01-28 21:33:00,
2013-01-28 11:42:00,70.0,66.0,30.29,NE,41,9.0,14.0,87,0.00,,,0.00,171.000000,,2013-01-28 21:42:00,
2013-01-28 11:52:00,70.0,66.0,30.29,NE,41,9.0,14.0,87,0.00,,,0.00,171.000000,,2013-01-28 21:52:00,
2013-01-28 12:22:00,75.0,67.0,30.26,North,2,5.0,11.0,75,0.00,,,0.00,248.000000,,2013-01-28 22:22:00,
2013-01-28 12:32:00,75.0,67.0,30.26,North,2,5.0,11.0,75,0.00,,,0.00,248.000000,,2013-01-28 22:32:00,
2013-01-28 12:42:00,75.0,67.0,30.26,North,2,5.0,11.0,75,0.00,,,0.00,248.000000,,2013-01-28 22:42:00,
2013-01-28 12:52:00,75.0,67.0,30.26,North,2,5.0,11.0,75,0.00,,,0.00,248.000000,,2013-01-28 22:52:00,
2013-01-28 13:11:00,73.0,64.0,30.24,ENE,67,4.0,15.0,74,0.00,,,0.00,477.000000,,2013-01-28 23:11:00,
2013-01-28 13:22:00,73.0,64.0,30.24,ENE,67,4.0,15.0,74,0.00,,,0.00,477.000000,,2013-01-28 23:22:00,
2013-01-28 13:32:00,73.0,64.0,30.24,ENE,67,4.0,15.0,74,0.00,,,0.00,477.000000,,2013-01-28 23:32:00,
2013-01-28 13:42:00,73.0,64.0,30.24,ENE,67,4.0,15.0,74,0.00,,,0.00,477.000000,,2013-01-28 23:42:00,
2013-01-28 13:52:00,73.0,64.0,30.24,ENE,67,4.0,15.0,74,0.00,,,0.00,477.000000,,2013-01-28 23:52:00,
2013-01-28 14:12:00,72.0,64.0,30.21,NE,55,7.0,13.0,75,0.00,,,0.00,320.000000,,2013-01-29 00:12:00,
2013-01-28 14:22:00,72.0,64.0,30.21,NE,55,7.0,13.0,75,0.00,,,0.00,320.000000,,2013-01-29 00:22:00,
2013-01-28 14:32:00,72.0,64.0,30.21,NE,55,7.0,13.0,75,0.00,,,0.00,320.000000,,2013-01-29 00:32:00,
2013-01-28 14:41:00,72.0,64.0,30.21,NE,55,7.0,13.0,75,0.00,,,0.00,320.000000,,2013-01-29 00:41:00,
2013-01-28 14:51:00,72.0,64.0,30.21,NE,55,7.0,13.0,75,0.00,,,0.00,320.000000,,2013-01-29 00:51:00,
2013-01-28 15:11:00,76.0,64.0,30.20,SW,227,2.0,8.0,66,0.00,,,0.00,300.000000,,2013-01-29 01:11:00,
2013-01-28 15:22:00,76.0,64.0,30.20,SW,227,2.0,8.0,66,0.00,,,0.00,300.000000,,2013-01-29 01:22:00,
2013-01-28 15:32:00,76.0,64.0,30.20,SW,227,2.0,8.0,66,0.00,,,0.00,300.000000,,2013-01-29 01:32:00,
2013-01-28 15:42:00,76.0,64.0,30.20,SW,227,2.0,8.0,66,0.00,,,0.00,300.000000,,2013-01-29 01:42:00,
2013-01-28 15:52:00,76.0,64.0,30.20,SW,227,2.0,8.0,66,0.00,,,0.00,300.000000,,2013-01-29 01:52:00,
2013-01-28 16:11:00,73.0,63.0,30.20,SSW,194,5.0,8.0,72,0.00,,,0.00,308.000000,,2013-01-29 02:11:00,
2013-01-28 16:21:00,73.0,63.0,30.20,SSW,194,5.0,8.0,72,0.00,,,0.00,308.000000,,2013-01-29 02:21:00,
2013-01-28 16:32:00,73.0,63.0,30.20,SSW,194,5.0,8.0,72,0.00,,,0.00,308.000000,,2013-01-29 02:32:00,
2013-01-28 16:41:00,73.0,63.0,30.20,SSW,194,5.0,8.0,72,0.00,,,0.00,308.000000,,2013-01-29 02:41:00,
2013-01-28 16:52:00,73.0,63.0,30.20,SSW,194,5.0,8.0,72,0.00,,,0.00,308.000000,,2013-01-29 02:52:00,
2013-01-28 17:21:00,72.0,64.0,30.22,SW,228,5.0,9.0,75,0.00,,,0.00,324.000000,,2013-01-29 03:21:00,
2013-01-28 17:31:00,72.0,64.0,30.22,SW,228,5.0,9.0,75,0.00,,,0.00,324.000000,,2013-01-29 03:31:00,
2013-01-28 17:42:00,72.0,64.0,30.22,SW,228,5.0,9.0,75,0.00,,,0.00,324.000000,,2013-01-29 03:42:00,
2013-01-28 17:52:00,72.0,64.0,30.22,SW,228,5.0,9.0,75,0.00,,,0.00,324.000000,,2013-01-29 03:52:00,
2013-01-28 18:11:00,71.0,65.0,30.22,SSW,213,5.0,9.0,80,0.00,,,0.00,161.000000,,2013-01-29 04:11:00,
2013-01-28 18:21:00,71.0,65.0,30.22,SSW,213,5.0,9.0,80,0.00,,,0.00,161.000000,,2013-01-29 04:21:00,
2013-01-28 18:32:00,71.0,65.0,30.22,SSW,213,5.0,9.0,80,0.00,,,0.00,161.000000,,2013-01-29 04:32:00,
2013-01-28 18:41:00,71.0,65.0,30.22,SSW,213,5.0,9.0,80,0.00,,,0.00,161.000000,,2013-01-29 04:41:00,
2013-01-28 18:51:00,71.0,65.0,30.22,SSW,213,5.0,9.0,80,0.00,,,0.00,161.000000,,2013-01-29 04:51:00,
2013-01-28 19:21:00,71.0,65.0,30.24,SW,227,8.0,12.0,81,0.00,,,0.00,44.000000,,2013-01-29 05:21:00,
2013-01-28 19:32:00,71.0,65.0,30.24,SW,227,8.0,12.0,81,0.00,,,0.00,44.000000,,2013-01-29 05:32:00,
2013-01-28 19:42:00,71.0,65.0,30.24,SW,227,8.0,12.0,81,0.00,,,0.00,44.000000,,2013-01-29 05:42:00,
2013-01-28 19:52:00,71.0,65.0,30.24,SW,227,8.0,12.0,81,0.00,,,0.00,44.000000,,2013-01-29 05:52:00,
2013-01-28 20:11:00,72.0,57.0,30.24,SW,224,7.0,13.0,59,0.00,,,0.00,2.000000,,2013-01-29 06:11:00,
2013-01-28 20:21:00,72.0,57.0,30.24,SW,224,7.0,13.0,59,0.00,,,0.00,2.000000,,2013-01-29 06:21:00,
2013-01-28 20:31:00,72.0,57.0,30.24,SW,224,7.0,13.0,59,0.00,,,0.00,2.000000,,2013-01-29 06:31:00,
2013-01-28 20:41:00,72.0,57.0,30.24,SW,224,7.0,13.0,59,0.00,,,0.00,2.000000,,2013-01-29 06:41:00,
2013-01-28 20:52:00,72.0,57.0,30.24,SW,224,7.0,13.0,59,0.00,,,0.00,2.000000,,2013-01-29 06:52:00,
2013-01-28 21:21:00,74.0,60.0,30.26,South,182,8.0,16.0,62,0.00,,,0.00,0.000000,,2013-01-29 07:21:00,
2013-01-28 21:31:00,74.0,60.0,30.26,South,182,8.0,16.0,62,0.00,,,0.00,0.000000,,2013-01-29 07:31:00,
2013-01-28 21:41:00,74.0,60.0,30.26,South,182,8.0,16.0,62,0.00,,,0.00,0.000000,,2013-01-29 07:41:00,
2013-01-28 21:51:00,74.0,60.0,30.26,South,182,8.0,16.0,62,0.00,,,0.00,0.000000,,2013-01-29 07:51:00,
2013-01-28 22:11:00,71.0,63.0,30.26,South,174,8.0,15.0,76,0.00,,,0.00,0.000000,,2013-01-29 08:11:00,
2013-01-28 22:21:00,71.0,63.0,30.26,South,174,8.0,15.0,76,0.00,,,0.00,0.000000,,2013-01-29 08:21:00,
2013-01-28 22:31:00,71.0,63.0,30.26,South,174,8.0,15.0,76,0.00,,,0.00,0.000000,,2013-01-29 08:31:00,
2013-01-28 22:41:00,71.0,63.0,30.26,South,174,8.0,15.0,76,0.00,,,0.00,0.000000,,2013-01-29 08:41:00,
2013-01-28 22:51:00,71.0,63.0,30.26,South,174,8.0,15.0,76,0.00,,,0.00,0.000000,,2013-01-29 08:51:00,
2013-01-28 23:21:00,72.0,66.0,30.26,South,189,6.0,12.0,81,0.00,,,0.00,0.000000,,2013-01-29 09:21:00,
2013-01-28 23:31:00,72.0,66.0,30.26,South,189,6.0,12.0,81,0.00,,,0.00,0.000000,,2013-01-29 09:31:00,
2013-01-28 23:42:00,72.0,66.0,30.26,South,189,6.0,12.0,81,0.00,,,0.00,0.000000,,2013-01-29 09:42:00,
2013-01-28 23:51:00,72.0,66.0,30.26,South,189,6.0,12.0,81,0.00,,,0.00,0.000000,,2013-01-29 09:51:00,